DLH522 EDDF-EDDH

Flight info

Callsign DLH522
Flight time 0h 42m
Altitude 33000
Route MARUN3W/25C MARUN Y150 TOLGI DCT SAS/N0407F320 P605 NOLGO NOLGO6A
Aircraft A20N/M-SDE2E3FGHIRWXY/LB1

Departure

Time 2026-05-05 16:44
Airport Frankfurt Main Airport (EDDF)

Arrival

Time 2026-05-05 17:26
Airport Hamburg Helmut Schmidt Airport (EDDH)
Time Latitude Longitude Altitude Speed Heading
2026-05-05 16:07 50.04480 8.56539 363 ft 0 kts 165°
2026-05-05 16:28 50.04486 8.56536 363 ft 4 kts 168°
2026-05-05 16:28 50.04507 8.56530 363 ft 4 kts 161°
2026-05-05 16:28 50.04530 8.56511 364 ft 4 kts 138°
2026-05-05 16:28 50.04549 8.56481 363 ft 4 kts 132°
2026-05-05 16:29 50.04567 8.56456 363 ft 4 kts 181°
2026-05-05 16:29 50.04572 8.56456 363 ft 0 kts 205°
2026-05-05 16:32 50.04560 8.56447 369 ft 4 kts 205°
2026-05-05 16:32 50.04524 8.56412 363 ft 7 kts 228°
2026-05-05 16:32 50.04504 8.56338 364 ft 8 kts 247°
2026-05-05 16:33 50.04489 8.56274 363 ft 4 kts 250°
2026-05-05 16:33 50.04488 8.56267 363 ft 0 kts 250°
2026-05-05 16:36 50.04483 8.56248 369 ft 6 kts 250°
2026-05-05 16:36 50.04464 8.56165 364 ft 9 kts 250°
2026-05-05 16:36 50.04451 8.56113 369 ft 5 kts 249°
2026-05-05 16:36 50.04443 8.56079 363 ft 2 kts 249°
2026-05-05 16:37 50.04432 8.56049 364 ft 5 kts 232°
2026-05-05 16:37 50.04414 8.56030 363 ft 0 kts 204°
2026-05-05 16:38 50.04403 8.56026 364 ft 5 kts 189°
2026-05-05 16:38 50.04345 8.56054 365 ft 11 kts 158°
2026-05-05 16:38 50.04290 8.56143 362 ft 12 kts 83°
2026-05-05 16:39 50.04245 8.56239 365 ft 13 kts 157°
2026-05-05 16:39 50.04155 8.56292 365 ft 14 kts 142°
2026-05-05 16:39 50.04162 8.56429 363 ft 15 kts 69°
2026-05-05 16:39 50.04203 8.56596 365 ft 17 kts 69°
2026-05-05 16:40 50.04248 8.56783 365 ft 20 kts 69°
2026-05-05 16:40 50.04299 8.56994 369 ft 22 kts 69°
2026-05-05 16:40 50.04353 8.57222 363 ft 23 kts 69°
2026-05-05 16:40 50.04410 8.57467 364 ft 25 kts 69°
2026-05-05 16:41 50.04473 8.57727 369 ft 27 kts 69°
2026-05-05 16:41 50.04522 8.57933 365 ft 8 kts 69°
2026-05-05 16:41 50.04534 8.58038 364 ft 11 kts 109°
2026-05-05 16:41 50.04478 8.58093 365 ft 0 kts 159°
2026-05-05 16:42 50.04477 8.58093 365 ft 1 kts 159°
2026-05-05 16:42 50.04441 8.58114 369 ft 9 kts 162°
2026-05-05 16:42 50.04371 8.58084 366 ft 13 kts 223°
2026-05-05 16:42 50.04354 8.58041 364 ft 0 kts 246°
2026-05-05 16:44 50.04337 8.57975 364 ft 35 kts 249°
2026-05-05 16:44 50.04149 8.57171 368 ft 119 kts 250°
2026-05-05 16:44 50.03922 8.56225 378 ft 160 kts 250°
2026-05-05 16:44 50.03509 8.54539 1040 ft 166 kts 249°
2026-05-05 16:45 50.03104 8.52877 1987 ft 162 kts 251°
2026-05-05 16:45 50.02712 8.51197 2720 ft 173 kts 250°
2026-05-05 16:45 50.02082 8.49523 3250 ft 192 kts 228°
2026-05-05 16:45 50.00955 8.48280 3848 ft 207 kts 202°
2026-05-05 16:46 49.99524 8.47827 4783 ft 208 kts 187°
2026-05-05 16:46 49.98091 8.47558 5754 ft 207 kts 188°
2026-05-05 16:46 49.96665 8.47257 6697 ft 207 kts 188°
2026-05-05 16:46 49.95254 8.46764 7577 ft 209 kts 197°
2026-05-05 16:47 49.93806 8.46067 8179 ft 228 kts 197°
2026-05-05 16:47 49.92292 8.45182 8746 ft 245 kts 211°
2026-05-05 16:47 49.91105 8.43329 9623 ft 251 kts 238°
2026-05-05 16:47 49.90598 8.40639 10524 ft 260 kts 266°
2026-05-05 16:48 49.90980 8.37870 11332 ft 271 kts 294°
2026-05-05 16:48 49.92187 8.35579 12174 ft 282 kts 321°
2026-05-05 16:48 49.93955 8.34073 12666 ft 302 kts 335°
2026-05-05 16:48 49.96017 8.32901 12836 ft 332 kts 339°
2026-05-05 16:49 49.98306 8.31672 12856 ft 359 kts 339°
2026-05-05 16:49 50.00675 8.30301 13419 ft 366 kts 337°
2026-05-05 16:49 50.03039 8.28994 14264 ft 368 kts 345°
2026-05-05 16:49 50.05648 8.28632 14995 ft 376 kts
2026-05-05 16:50 50.08182 8.29497 15696 ft 381 kts 18°
2026-05-05 16:50 50.10732 8.30843 16408 ft 385 kts 18°
2026-05-05 16:50 50.13291 8.32202 17118 ft 390 kts 18°
2026-05-05 16:50 50.15865 8.33565 17810 ft 394 kts 18°
2026-05-05 16:51 50.18449 8.34927 18445 ft 398 kts 18°
2026-05-05 16:51 50.21089 8.36316 19059 ft 401 kts 18°
2026-05-05 16:51 50.23744 8.37711 19665 ft 405 kts 18°
2026-05-05 16:51 50.26419 8.39118 20256 ft 409 kts 18°
2026-05-05 16:52 50.29147 8.40555 20850 ft 413 kts 17°
2026-05-05 16:52 50.31876 8.42011 21426 ft 418 kts 18°
2026-05-05 16:52 50.34635 8.43516 21995 ft 422 kts 18°
2026-05-05 16:52 50.37410 8.45039 22557 ft 426 kts 18°
2026-05-05 16:53 50.40227 8.46584 23120 ft 430 kts 18°
2026-05-05 16:53 50.43060 8.48135 23633 ft 434 kts 18°
2026-05-05 16:53 50.45923 8.49703 24106 ft 437 kts 18°
2026-05-05 16:53 50.48810 8.51272 24557 ft 441 kts 17°
2026-05-05 16:54 50.51753 8.52715 25020 ft 444 kts 14°
2026-05-05 16:54 50.54725 8.54096 25476 ft 447 kts 14°
2026-05-05 16:54 50.57712 8.55482 25919 ft 451 kts 14°
2026-05-05 16:54 50.60733 8.56903 26358 ft 454 kts 14°
2026-05-05 16:55 50.65574 8.59216 27038 ft 459 kts 14°
2026-05-05 16:55 50.71728 8.62177 27855 ft 465 kts 14°
2026-05-05 16:55 50.77945 8.65190 28630 ft 471 kts 16°
2026-05-05 16:55 50.83659 8.70412 29317 ft 483 kts 41°
2026-05-05 16:56 50.87952 8.78701 29981 ft 489 kts 55°
2026-05-05 16:56 50.91914 8.87482 30666 ft 492 kts 54°
2026-05-05 16:56 50.96012 8.96207 31414 ft 493 kts 53°
2026-05-05 16:56 51.00135 9.04884 32278 ft 491 kts 53°
2026-05-05 16:57 51.04223 9.13501 32790 ft 488 kts 53°
2026-05-05 16:57 51.08305 9.22081 32797 ft 488 kts 49°
2026-05-05 16:57 51.13551 9.28832 32803 ft 484 kts 24°
2026-05-05 16:57 51.19907 9.31913 32802 ft 476 kts
2026-05-05 16:58 51.26852 9.33767 32804 ft 477 kts
2026-05-05 16:58 51.33366 9.35857 32798 ft 478 kts
2026-05-05 16:59 51.39877 9.38113 32807 ft 479 kts
2026-05-05 16:59 51.46360 9.40385 32799 ft 478 kts
2026-05-05 17:00 51.52874 9.42671 32805 ft 478 kts
2026-05-05 17:00 51.59391 9.44962 32807 ft 478 kts
2026-05-05 17:01 51.65877 9.47249 32816 ft 478 kts
2026-05-05 17:01 51.72397 9.49555 32823 ft 478 kts
2026-05-05 17:02 51.78876 9.51853 32843 ft 478 kts
2026-05-05 17:02 51.85236 9.55246 32842 ft 485 kts 22°
2026-05-05 17:03 51.91245 9.60208 32839 ft 486 kts 24°
2026-05-05 17:03 51.97280 9.65178 32835 ft 486 kts 24°
2026-05-05 17:04 52.03299 9.70170 32853 ft 486 kts 24°
2026-05-05 17:04 52.09318 9.75192 32852 ft 487 kts 24°
2026-05-05 17:05 52.15348 9.80239 32862 ft 487 kts 24°
2026-05-05 17:05 52.21380 9.85303 32874 ft 488 kts 24°
2026-05-05 17:06 52.24421 9.87734 32662 ft 485 kts 19°
2026-05-05 17:06 52.27649 9.89573 32059 ft 481 kts 11°
2026-05-05 17:06 52.34167 9.92391 30109 ft 492 kts 11°
2026-05-05 17:06 52.40846 9.95340 28188 ft 494 kts 12°
2026-05-05 17:07 52.47353 9.98228 27408 ft 471 kts 11°
2026-05-05 17:07 52.53580 10.00990 26409 ft 457 kts 11°
2026-05-05 17:07 52.59648 10.03686 25327 ft 448 kts 11°
2026-05-05 17:07 52.65623 10.06356 24167 ft 442 kts 11°
2026-05-05 17:08 52.70999 10.08764 23064 ft 437 kts 12°
2026-05-05 17:08 52.73886 10.10060 22590 ft 430 kts 12°
2026-05-05 17:08 52.76755 10.11249 22135 ft 421 kts
2026-05-05 17:08 52.79631 10.11825 21629 ft 412 kts 359°
2026-05-05 17:09 52.82453 10.11902 21375 ft 400 kts 357°
2026-05-05 17:09 52.85173 10.11990 21224 ft 386 kts 357°
2026-05-05 17:09 52.87817 10.12092 21102 ft 372 kts 357°
2026-05-05 17:09 52.90404 10.12192 20975 ft 359 kts 357°
2026-05-05 17:10 52.92876 10.12280 20658 ft 353 kts 357°
2026-05-05 17:10 52.95277 10.12358 20263 ft 350 kts 357°
2026-05-05 17:10 52.97746 10.12436 19862 ft 347 kts 357°
2026-05-05 17:10 53.00121 10.12511 19484 ft 344 kts 357°
2026-05-05 17:11 53.02509 10.12581 19102 ft 341 kts 357°
2026-05-05 17:11 53.04861 10.12645 18736 ft 338 kts 357°
2026-05-05 17:11 53.07206 10.12704 18371 ft 335 kts 357°
2026-05-05 17:11 53.09538 10.12758 17991 ft 333 kts 357°
2026-05-05 17:12 53.11839 10.12714 17569 ft 328 kts 348°
2026-05-05 17:12 53.13953 10.11564 17104 ft 317 kts 326°
2026-05-05 17:12 53.15824 10.09653 16667 ft 314 kts 324°
2026-05-05 17:12 53.17662 10.07719 16098 ft 311 kts 324°
2026-05-05 17:13 53.19483 10.05797 15547 ft 307 kts 324°
2026-05-05 17:13 53.21283 10.03890 15093 ft 305 kts 324°
2026-05-05 17:13 53.23061 10.02000 14692 ft 305 kts 324°
2026-05-05 17:13 53.24851 10.00086 14105 ft 305 kts 324°
2026-05-05 17:14 53.26640 9.98161 13445 ft 306 kts 324°
2026-05-05 17:14 53.28424 9.96232 12734 ft 306 kts 324°
2026-05-05 17:14 53.30148 9.94169 12033 ft 303 kts 312°
2026-05-05 17:14 53.31288 9.91304 11358 ft 295 kts 288°
2026-05-05 17:15 53.31878 9.88040 10696 ft 293 kts 284°
2026-05-05 17:15 53.32427 9.84746 10043 ft 293 kts 284°
2026-05-05 17:15 53.32973 9.81470 9347 ft 292 kts 284°
2026-05-05 17:15 53.33512 9.78220 8759 ft 288 kts 284°
2026-05-05 17:16 53.34030 9.75082 8488 ft 272 kts 284°
2026-05-05 17:16 53.34526 9.72074 8194 ft 259 kts 284°
2026-05-05 17:16 53.34991 9.69275 8042 ft 243 kts 284°
2026-05-05 17:16 53.35436 9.66602 7704 ft 235 kts 284°
2026-05-05 17:17 53.35875 9.63960 7206 ft 235 kts 284°
2026-05-05 17:17 53.36305 9.61344 6762 ft 234 kts 284°
2026-05-05 17:17 53.36735 9.58718 6335 ft 233 kts 284°
2026-05-05 17:17 53.37155 9.56150 5892 ft 231 kts 284°
2026-05-05 17:18 53.37610 9.53547 5411 ft 230 kts 293°
2026-05-05 17:18 53.38599 9.51484 4925 ft 232 kts 326°
2026-05-05 17:18 53.40151 9.50806 4417 ft 236 kts
2026-05-05 17:18 53.41599 9.51943 4087 ft 232 kts 45°
2026-05-05 17:19 53.42561 9.54017 3994 ft 218 kts 54°
2026-05-05 17:19 53.43380 9.56004 4023 ft 193 kts 54°
2026-05-05 17:19 53.44119 9.57806 4001 ft 190 kts 54°
2026-05-05 17:19 53.44872 9.59621 3998 ft 187 kts 53°
2026-05-05 17:20 53.45618 9.61397 3998 ft 187 kts 53°
2026-05-05 17:20 53.46374 9.63173 3997 ft 187 kts 52°
2026-05-05 17:20 53.47131 9.64940 3995 ft 187 kts 53°
2026-05-05 17:20 53.47847 9.66743 3848 ft 184 kts 54°
2026-05-05 17:21 53.48600 9.68481 3544 ft 183 kts 51°
2026-05-05 17:21 53.49356 9.70161 3410 ft 181 kts 51°
2026-05-05 17:21 53.50119 9.71867 3274 ft 183 kts 51°
2026-05-05 17:22 53.51718 9.75330 2971 ft 191 kts 50°
2026-05-05 17:22 53.52254 9.76572 2916 ft 190 kts 52°
2026-05-05 17:22 53.53065 9.78326 2805 ft 190 kts 49°
2026-05-05 17:22 53.53886 9.80038 2551 ft 187 kts 49°
2026-05-05 17:23 53.54695 9.81715 2325 ft 184 kts 48°
2026-05-05 17:23 53.55488 9.83355 2065 ft 176 kts 48°
2026-05-05 17:23 53.56241 9.84908 1844 ft 165 kts 48°
2026-05-05 17:23 53.56912 9.86338 1627 ft 150 kts 50°
2026-05-05 17:24 53.57544 9.87642 1418 ft 134 kts 48°
2026-05-05 17:24 53.58131 9.88837 1249 ft 134 kts 48°
2026-05-05 17:24 53.58726 9.90049 1059 ft 133 kts 47°
2026-05-05 17:24 53.59311 9.91239 894 ft 132 kts 48°
2026-05-05 17:25 53.59889 9.92421 698 ft 130 kts 49°
2026-05-05 17:25 53.60076 9.92799 636 ft 129 kts 49°
2026-05-05 17:25 53.61028 9.94713 374 ft 129 kts 50°
2026-05-05 17:25 53.61583 9.95862 213 ft 127 kts 51°
2026-05-05 17:26 53.62135 9.96991 65 ft 124 kts 50°
2026-05-05 17:26 53.62678 9.98104 48 ft 119 kts 49°
2026-05-05 17:26 53.63146 9.99045 49 ft 87 kts 49°
2026-05-05 17:26 53.63289 9.99376 50 ft 21 kts 89°